User: anonymous   Login
Location: Astronight Observatory
(42.6003°N, 71.2981°W)
Time: 15:44:00
(UTC-04:00)
Language:

DELTA 2 R/B (1) - Orbit

View from above orbital plane
View from above orbital plane
View from above satellite
View from above satellite

Ground track
Ground track

The orbit data is extracted from the following two-line orbital elements,

1 27665U 03005C   18146.21850007 -.00000102  00000-0 -65221-5 0  9993
2 27665  39.5743 163.5690 0008981 337.3766 117.2900 14.28476318799997
Epoch (UTC): 26 May 2018 05:14:38
Eccentricity: 0.0008981
inclination: 39.5743°
perigee height: 790 km
apogee height: 803 km
right ascension of ascending node: 163.5690°
argument of perigee: 337.3766°
revolutions per day: 14.28476318
mean anomaly at epoch: 117.2900°
orbit number at epoch: 79999

The dashed part of the orbit path shows where the satellite is in the earth's shadow,  

DLR